User: anonymous   Login
Location: Unspecified
(0.0000°N, 0.0000°E)
Time: 23:38:57
(UTC+00:00)
Language:

ASUSAT - Orbit

View from above orbital plane
View from above orbital plane
View from above satellite
View from above satellite

Ground track
Ground track

The orbit data is extracted from the following two-line orbital elements,

1 26065U 00004E   24176.43379939  .00000239  00000-0  99079-4 0  9992
2 26065 100.2191 331.1307 0035658 275.4271  84.2843 14.37568843279688
Epoch (UTC): 24 June 2024 10:24:40
Eccentricity: 0.0035658
inclination: 100.2191°
perigee height: 741 km
apogee height: 792 km
right ascension of ascending node: 331.1307°
argument of perigee: 275.4271°
revolutions per day: 14.37568843
mean anomaly at epoch: 84.2843°
orbit number at epoch: 27968

The dashed part of the orbit path shows where the satellite is in the earth's shadow,  

DLR